VK2TRB Weather Reports


time (UTC)temp
F
wind
direction
speed
knots
gust
knots
rain 1hr
in
rain 24hr
in
rain mn
in
humidity
%
barometer
mb
20260505101956 50 290 0.0 4.3 0.00 0.00 0.00 88 1019.0
20260505100457 50 290 0.0 4.3 0.00 0.00 0.00 87 1018.9
20260505094957 51 290 0.0 4.3 0.00 0.00 0.00 86 1018.9
20260505093456 52 290 0.0 4.3 0.00 0.00 0.00 85 1018.9
20260505091956 53 291 0.0 4.3 0.00 0.00 0.00 85 1018.8
20260505090458 53 290 0.0 4.3 0.00 0.00 0.00 85 1018.8
20260505084957 54 291 0.0 4.3 0.00 0.00 0.00 84 1018.6
20260505083457 54 285 0.9 4.3 0.00 0.00 0.00 83 1018.4
20260505081956 55 263 0.9 4.3 0.00 0.00 0.00 81 1018.2
20260505080456 56 259 0.9 4.3 0.00 0.00 0.00 80 1018.1
20260505074957 56 265 0.9 4.3 0.00 0.00 0.00 79 1017.9
20260505073457 57 261 2.6 4.3 0.00 0.00 0.00 76 1017.8
20260505071957 58 238 1.7 4.3 0.00 0.00 0.00 74 1017.6
20260505070457 59 262 1.7 4.3 0.00 0.00 0.00 72 1017.5
20260505064957 59 277 2.6 4.3 0.00 0.00 0.00 70 1017.4
20260505063457 60 232 3.5 4.3 0.00 0.00 0.00 68 1017.3
20260505061957 60 297 2.6 4.3 0.00 0.00 0.00 68 1017.2
20260505060457 61 272 4.3 4.3 0.00 0.00 0.00 67 1017.2
20260505054957 61 253 4.3 4.3 0.00 0.00 0.00 66 1017.2
20260505053457 61 269 0.9 4.3 0.00 0.00 0.00 67 1017.1
20260505051956 62 281 4.3 4.3 0.00 0.00 0.00 66 1016.9
20260505050458 62 294 3.5 4.3 0.00 0.00 0.00 65 1016.8
20260505040458 61 281 3.5 4.3 0.00 0.00 0.00 66 1016.6
20260505034958 61 244 2.6 4.3 0.00 0.00 0.00 68 1016.5
20260505033457 60 351 2.6 4.3 0.00 0.00 0.00 70 1016.6
20260505031957 61 311 3.5 4.3 0.00 0.00 0.00 68 1016.7
20260505030458 60 302 1.7 4.3 0.00 0.00 0.00 73 1016.8
20260505024958 60 238 1.7 4.3 0.00 0.00 0.00 73 1016.8
20260505023458 59 316 3.5 4.3 0.00 0.00 0.00 72 1017.0
20260505021957 59 209 1.7 4.3 0.00 0.00 0.00 73 1017.0
20260505020458 59 338 0.9 4.3 0.00 0.00 0.00 73 1017.2
20260505014958 58 327 0.9 4.3 0.00 0.00 0.00 75 1017.2
20260505013459 58 253 2.6 4.3 0.00 0.00 0.00 76 1017.2
20260505011958 58 261 3.5 4.3 0.00 0.00 0.00 74 1017.4
20260505010458 58 299 2.6 4.3 0.00 0.00 0.00 76 1017.4
20260505004958 57 301 2.6 4.3 0.00 0.00 0.00 77 1017.4
20260505003457 57 238 0.9 4.3 0.00 0.00 0.00 77 1017.3
20260505001958 57 269 2.6 4.3 0.00 0.00 0.00 77 1017.2
20260505000458 57 240 1.7 4.3 0.00 0.00 0.00 79 1017.1
20260504234958 56 307 2.6 4.3 0.00 0.00 0.00 81 1017.0
20260504233458 55 250 0.9 4.3 0.00 0.00 0.00 85 1017.0
20260504231959 55 239 3.5 4.3 0.00 0.00 0.00 85 1017.0
20260504230457 54 271 1.7 4.3 0.00 0.00 0.00 87 1017.0
20260504224959 54 205 0.0 4.3 0.00 0.00 0.00 88 1017.0
20260504223458 53 246 0.9 4.3 0.00 0.00 0.00 89 1016.9
20260504221958 53 219 1.7 4.3 0.00 0.00 0.00 91 1016.8
20260504220458 53 245 0.0 4.3 0.00 0.00 0.00 92 1016.5
20260504214958 53 260 0.9 4.3 0.00 0.00 0.00 92 1016.2
20260504213459 52 273 0.9 4.3 0.00 0.00 0.00 92 1015.9
20260504211958 52 275 0.0 4.3 0.00 0.00 0.00 92 1015.7
20260504210458 52 274 0.9 4.3 0.00 0.00 0.00 92 1015.5
20260504205000 51 261 0.9 4.3 0.00 0.00 0.00 92 1015.3
20260504203459 52 250 1.7 4.3 0.00 0.00 0.00 91 1015.2
20260504201959 52 243 1.7 4.3 0.00 0.00 0.00 92 1015.1
20260504200458 52 240 2.6 4.3 0.00 0.00 0.00 93 1014.9
20260504194958 50 258 0.0 4.3 0.00 0.02 0.00 92 1014.8
20260504193500 50 274 0.0 4.3 0.00 0.02 0.00 91 1014.8
20260504191959 50 274 0.0 4.3 0.00 0.02 0.00 91 1014.7
20260504190459 50 274 0.0 4.3 0.00 0.02 0.00 90 1014.6
20260504184959 50 283 0.0 4.3 0.00 0.08 0.00 90 1014.4
20260504183459 50 284 0.0 4.3 0.00 0.08 0.00 89 1014.2
20260504182000 50 284 0.0 4.3 0.00 0.08 0.00 88 1014.2
20260504180500 51 284 0.0 4.3 0.00 0.08 0.00 88 1014.0
20260504174959 51 285 0.9 4.3 0.00 0.10 0.00 88 1013.8
20260504173458 51 286 0.9 4.3 0.00 0.10 0.00 87 1013.7
20260504172000 51 287 0.0 4.3 0.00 0.10 0.00 87 1013.7
20260504170500 52 288 0.0 4.3 0.00 0.10 0.00 86 1013.7
20260504150459 55 288 0.9 4.3 0.00 0.19 0.00 79 1013.4
20260504140459 52 290 0.9 10.4 0.03 0.03 0.03 90 1013.4
20260504130500 49 250 0.0 10.4 0.03 0.08 0.08 91 1013.5
20260504110500 51 262 0.0 10.4 0.03 0.18 0.08 89 1013.4